Atqasuk Edward Burnell Sr Mem, AK

4:56 AM AKDT on July 18, 2019 (GMT -0800)
Atqasuk Edward Burnell Sr Mem

Weather History for PATQ - May, 2019

Change the Weather History Date:

Friday, May 10, 2019

  Actual Average (PABR) Record (PABR)
Temperature  
Mean Temperature 23 °F 18 °F  
Max Temperature 26 °F 23 °F 36 °F (1996)
Min Temperature 21 °F 13 °F -16 °F (2001)
Degree Days  
Heating Degree Days 42 47  
Month to date heating degree days 499  
Since 1 July heating degree days 17659  
Cooling Degree Days 0 0  
Month to date cooling degree days 0  
Year to date cooling degree days 0  
Moisture  
Dew Point 22 °F    
Average Humidity 94    
Maximum Humidity 100    
Minimum Humidity 85    
Precipitation  
Precipitation 0.00 in 0.01 in 0.28 in (1969)
Month to date precipitation 0.05  
Year to date precipitation 0.57  
Snow  
Snow 0.00 in 0.10 in 3.80 in (1969)
Month to date snowfall 1.0  
Since 1 July snowfall 35.3  
Snow Depth -    
Sea Level Pressure  
Sea Level Pressure 29.98 in    
Wind  
Wind Speed 16 mph (ENE)    
Max Wind Speed 20 mph    
Max Gust Speed -    
Visibility 5 miles    
Events Fog , Snow    
T = Trace of Precipitation, MM = Missing Value Source: NWS Daily Summary

Daily Weather History Graph

Daily Weather History Graph

Search for Another Location

Airport or City:

Astronomy

May. 10, 2019 Rise Set
Actual Time 3:45 AM AKDT 1:15 AM AKDT
Civil Twilight Sun does not set Sun does not set
Nautical Twilight Sun does not set Sun does not set
Astronomical Twilight Sun does not set Sun does not set
Moon No Moon Rise No Moon Set
Length of Visible Light 24h 00m
Length of Day
21h 30m
Waxing Crescent, 36% of the Moon is Illuminated
May 10
Waxing Crescent
May 11
First Quarter
May 18
Full
May 26
Last Quarter
Jun 3
New

Hourly Weather History & Observations

Time (AKDT) Temp. Windchill Dew Point Humidity Pressure Visibility Wind Dir Wind Speed Gust Speed Precip Events Conditions
12:56 AM 23.0 °F 9.6 °F 21.0 °F 92% 30.15 in 7.0 mi East 16.1 mph - N/A   Overcast
1:18 AM 23.0 °F 9.6 °F 21.2 °F 93% 30.13 in 2.5 mi East 16.1 mph - 0.00 in Snow Light Snow
1:56 AM 21.9 °F 7.8 °F 21.0 °F 96% 30.14 in 2.0 mi East 17.3 mph - 0.00 in   Overcast
2:12 AM 21.2 °F 7.3 °F 21.2 °F 100% 30.11 in 1.5 mi East 16.1 mph - 0.00 in   Overcast
2:27 AM 21.2 °F 6.8 °F 21.2 °F 100% 30.10 in 2.0 mi East 17.3 mph - 0.00 in   Overcast
2:37 AM 21.2 °F 6.8 °F 21.2 °F 100% 30.10 in 1.8 mi East 17.3 mph - 0.00 in   Overcast
2:56 AM 21.9 °F 7.8 °F 21.0 °F 96% 30.12 in 1.8 mi East 17.3 mph - 0.00 in   Overcast
3:04 AM 21.2 °F 7.3 °F 21.2 °F 100% 30.10 in 2.0 mi East 16.1 mph - 0.00 in   Overcast
3:11 AM 21.2 °F 6.8 °F 21.2 °F 100% 30.09 in 1.5 mi East 17.3 mph - 0.00 in   Overcast
3:21 AM 21.2 °F 6.8 °F 21.2 °F 100% 30.09 in 2.5 mi East 17.3 mph - 0.00 in Snow Light Snow
3:34 AM 21.2 °F 7.3 °F 21.2 °F 100% 30.09 in 1.8 mi East 16.1 mph - 0.00 in Snow Light Snow
3:56 AM 21.9 °F 9.2 °F 21.0 °F 96% 30.11 in 2.0 mi East 13.8 mph - 0.00 in Snow Light Snow
4:18 AM 21.2 °F 8.9 °F 21.2 °F 100% 30.08 in 1.8 mi East 12.7 mph - 0.00 in Snow Light Snow
4:56 AM 21.9 °F 9.8 °F 21.0 °F 96% 30.11 in 1.8 mi East 12.7 mph - 0.00 in Snow Light Snow
5:18 AM 21.2 °F 9.5 °F 21.2 °F 100% 30.08 in 2.0 mi East 11.5 mph - 0.00 in Snow Light Snow
5:34 AM 21.2 °F 8.9 °F 21.2 °F 100% 30.07 in 1.5 mi East 12.7 mph - 0.00 in   Overcast
5:51 AM 21.2 °F 8.9 °F 21.2 °F 100% 30.07 in 1.0 mi East 12.7 mph - 0.00 in   Overcast
5:56 AM 21.9 °F 9.8 °F 21.0 °F 96% 30.09 in 0.8 mi East 12.7 mph - 0.00 in   Overcast
6:11 AM 21.2 °F 8.9 °F 21.2 °F 100% 30.07 in 0.5 mi East 12.7 mph - 0.00 in Fog , Snow Light Snow
6:56 AM 21.9 °F 9.8 °F 21.0 °F 96% 30.08 in 0.5 mi East 12.7 mph - 0.00 in Fog , Snow Light Snow
7:20 AM 21.2 °F 8.3 °F 21.2 °F 100% 30.04 in 0.8 mi East 13.8 mph - 0.00 in Snow Light Snow
7:31 AM 21.2 °F 7.8 °F 21.2 °F 100% 30.04 in 1.2 mi East 15.0 mph - 0.00 in Snow Light Snow
7:46 AM 21.2 °F 8.3 °F 21.2 °F 100% 30.03 in 3.0 mi ENE 13.8 mph - 0.00 in Snow Light Snow
7:56 AM 21.9 °F 8.2 °F 19.9 °F 92% 30.05 in 7.0 mi ENE 16.1 mph - 0.00 in Snow Light Snow
8:22 AM 21.2 °F 7.3 °F 19.4 °F 93% 30.02 in 9.0 mi East 16.1 mph - 0.00 in   Mostly Cloudy
8:56 AM 21.9 °F 8.7 °F 19.9 °F 92% 30.04 in 9.0 mi ENE 15.0 mph - 0.00 in   Scattered Clouds
9:56 AM 21.0 °F 7.6 °F 19.0 °F 92% 30.03 in 10.0 mi East 15.0 mph - 0.00 in   Clear
10:56 AM 21.9 °F 7.8 °F 19.9 °F 92% 30.01 in 10.0 mi East 17.3 mph - N/A   Clear
11:56 AM 23.0 °F 9.6 °F 19.9 °F 88% 30.00 in 10.0 mi East 16.1 mph - N/A   Clear
12:56 PM 24.1 °F 11.5 °F 21.0 °F 88% 29.98 in 10.0 mi ENE 15.0 mph - N/A   Clear
1:56 PM 25.0 °F 12.6 °F 21.0 °F 85% 29.96 in 10.0 mi ENE 15.0 mph - N/A   Clear
2:56 PM 25.0 °F 11.7 °F 21.9 °F 88% 29.94 in 10.0 mi ENE 17.3 mph - N/A   Partly Cloudy
3:25 PM 24.8 °F 11.1 °F 21.2 °F 86% 29.91 in 9.0 mi ENE 18.4 mph - N/A   Mostly Cloudy
3:54 PM 24.8 °F 10.7 °F 21.2 °F 86% 29.90 in 10.0 mi NE 19.6 mph - N/A   Partly Cloudy
3:56 PM 25.0 °F 11.3 °F 21.9 °F 88% 29.92 in 10.0 mi NE 18.4 mph - N/A   Partly Cloudy
4:56 PM 25.0 °F 11.7 °F 21.9 °F 88% 29.90 in 10.0 mi NE 17.3 mph - N/A   Clear
5:33 PM 24.8 °F 11.1 °F 21.2 °F 86% 29.87 in 10.0 mi ENE 18.4 mph - N/A   Partly Cloudy
5:56 PM 25.0 °F 11.7 °F 21.9 °F 88% 29.89 in 10.0 mi ENE 17.3 mph - N/A   Mostly Cloudy
6:44 PM 24.8 °F 11.5 °F 23.0 °F 93% 29.86 in 1.8 mi ENE 17.3 mph - 0.00 in Snow Light Snow
6:56 PM 25.0 °F 11.3 °F 23.0 °F 92% 29.88 in 1.5 mi NE 18.4 mph - 0.00 in Snow Light Snow
7:01 PM 24.8 °F 11.9 °F 23.0 °F 93% 29.86 in 0.8 mi ENE 16.1 mph - 0.00 in Snow Light Snow
7:23 PM 24.8 °F 11.9 °F 23.0 °F 93% 29.86 in 1.0 mi ENE 16.1 mph - 0.00 in Snow Light Snow
7:41 PM 24.8 °F 11.1 °F 23.0 °F 93% 29.85 in 1.5 mi NE 18.4 mph - 0.00 in Snow Light Snow
7:56 PM 25.0 °F 11.3 °F 23.0 °F 92% 29.88 in 1.2 mi NE 18.4 mph - 0.00 in Snow Light Snow
8:09 PM 24.8 °F 11.9 °F 23.0 °F 93% 29.85 in 1.0 mi NE 16.1 mph - 0.00 in Snow Light Snow
8:20 PM 24.8 °F 11.1 °F 23.0 °F 93% 29.85 in 2.0 mi NE 18.4 mph - 0.00 in Snow Light Snow
8:47 PM 24.8 °F 11.1 °F 24.8 °F 100% 29.84 in 1.8 mi NE 18.4 mph - 0.00 in Snow Light Snow
8:53 PM 24.8 °F 11.5 °F 24.8 °F 100% 29.84 in 3.0 mi ENE 17.3 mph - 0.00 in Snow Light Snow
8:56 PM 25.0 °F 11.7 °F 24.1 °F 96% 29.86 in 2.5 mi ENE 17.3 mph - 0.00 in Snow Light Snow
9:05 PM 24.8 °F 11.9 °F 24.8 °F 100% 29.84 in 6.0 mi ENE 16.1 mph - 0.00 in Snow Light Snow
9:56 PM 25.0 °F 12.2 °F 23.0 °F 92% 29.85 in 9.0 mi ENE 16.1 mph - 0.00 in Snow Light Snow
10:05 PM 24.8 °F 11.9 °F 23.0 °F 93% 29.82 in 10.0 mi ENE 16.1 mph - N/A   Overcast
10:56 PM 24.1 °F 11.0 °F 23.0 °F 96% 29.84 in 10.0 mi ENE 16.1 mph - 0.00 in   Overcast
11:26 PM 23.0 °F 9.6 °F 21.2 °F 93% 29.81 in 6.0 mi ENE 16.1 mph - 0.00 in Snow Light Snow
11:56 PM 24.1 °F 11.5 °F 21.9 °F 91% 29.83 in 9.0 mi NE 15.0 mph - 0.00 in Snow Light Snow